QPF
0.00 0.00 0.00 0.01 0.08 0.04 0.00 0.00 0.00 0.00 0.00 0.00 0.00 0.00 0.00 0.00 0.01 0.05 0.01 0.00 0.00 0.00 0.00 0.01 0.02 0.03 0.02 0.02 0.05 0.05 0.05 0.08 0.08 0.10 0.05 0.03 0.03 0.03 0.02 0.01 0.00 0.00 0.00 0.00 0.02 0.02 0.01 0.01 0.02
0.00 0.00 0.00 0.03 0.08 0.01 0.00 0.00 0.00 0.00 0.00 0.00 0.00 0.00 0.00 0.00 0.00 0.00 0.00 0.00 0.00 0.00 0.00 0.02 0.03 0.03 0.01 0.02 0.05 0.07 0.08 0.09 0.08 0.07 0.04 0.02 0.03 0.05 0.06 0.03 0.02 0.01 0.00 0.00 0.01 0.01 0.01 0.02 0.03
0.00 0.00 0.00 0.02 0.02 0.00 0.00 0.00 0.00 0.00 0.00 0.00 0.00 0.00 0.00 0.00 0.00 0.00 0.00 0.00 0.00 0.00 0.01 0.04 0.05 0.04 0.03 0.03 0.05 0.06 0.10 0.12 0.10 0.05 0.02 0.01 0.01 0.03 0.04 0.02 0.02 0.01 0.00 0.00 0.00 0.01 0.01 0.01 0.01
0.00 0.00 0.00 0.00 0.00 0.00 0.00 0.00 0.00 0.00 0.00 0.00 0.00 0.00 0.00 0.00 0.00 0.00 0.00 0.00 0.00 0.00 0.01 0.02 0.03 0.06 0.06 0.05 0.07 0.08 0.10 0.14 0.11 0.04 0.02 0.01 0.01 0.02 0.01 0.03 0.02 0.00 0.00 0.00 0.00 0.00 0.01 0.01 0.00
0.00 0.00 0.03 0.02 0.00 0.00 0.00 0.00 0.00 0.00 0.00 0.00 0.00 0.00 0.00 0.00 0.00 0.00 0.00 0.00 0.00 0.00 0.00 0.01 0.02 0.04 0.05 0.04 0.08 0.10 0.10 0.12 0.07 0.03 0.02 0.01 0.01 0.00 0.01 0.02 0.01 0.00 0.00 0.00 0.00 0.00 0.01 0.01 0.01
0.00 0.00 0.07 0.05 0.00 0.00 0.00 0.00 0.00 0.00 0.00 0.00 0.00 0.00 0.00 0.00 0.00 0.00 0.00 0.00 0.00 0.00 0.00 0.00 0.01 0.02 0.02 0.02 0.06 0.09 0.09 0.09 0.06 0.02 0.02 0.01 0.00 0.00 0.01 0.01 0.00 0.00 0.00 0.00 0.00 0.01 0.02 0.01 0.00
0.00 0.01 0.05 0.03 0.00 0.00 0.00 0.00 0.00 0.00 0.00 0.00 0.00 0.00 0.00 0.00 0.00 0.00 0.00 0.00 0.00 0.00 0.00 0.00 0.00 0.00 0.00 0.01 0.03 0.04 0.06 0.08 0.06 0.03 0.01 0.00 0.00 0.00 0.00 0.00 0.00 0.00 0.00 0.00 0.00 0.01 0.01 0.00 0.00
0.00 0.00 0.00 0.00 0.00 0.00 0.00 0.00 0.00 0.00 0.00 0.00 0.00 0.00 0.00 0.00 0.00 0.00 0.00 0.00 0.00 0.00 0.00 0.00 0.00 0.00 0.00 0.00 0.01 0.02 0.04 0.06 0.06 0.03 0.01 0.00 0.00 0.00 0.00 0.00 0.00 0.00 0.00 0.00 0.00 0.00 0.00 0.00 0.00
0.00 0.00 0.01 0.01 0.00 0.00 0.00 0.00 0.00 0.00 0.00 0.00 0.00 0.00 0.00 0.00 0.00 0.00 0.00 0.00 0.00 0.00 0.00 0.00 0.00 0.00 0.00 0.00 0.00 0.01 0.02 0.03 0.03 0.01 0.00 0.01 0.02 0.01 0.00 0.00 0.00 0.00 0.00 0.00 0.00 0.00 0.00 0.00 0.00
0.00 0.01 0.03 0.02 0.00 0.00 0.00 0.00 0.00 0.00 0.00 0.00 0.00 0.00 0.00 0.00 0.00 0.00 0.00 0.00 0.00 0.00 0.00 0.00 0.00 0.00 0.00 0.02 0.04 0.10 0.06 0.02 0.01 0.00 0.00 0.04 0.03 0.02 0.00 0.00 0.00 0.00 0.00 0.00 0.00 0.00 0.00 0.00 0.00
0.00 0.00 0.00 0.01 0.00 0.00 0.00 0.00 0.00 0.00 0.00 0.00 0.00 0.00 0.00 0.00 0.00 0.00 0.00 0.00 0.00 0.00 0.00 0.00 0.00 0.00 0.00 0.04 0.08 0.11 0.15 0.09 0.04 0.00 0.00 0.05 0.02 0.00 0.00 0.00 0.00 0.00 0.00 0.00 0.00 0.00 0.00 0.00 0.00
0.00 0.00 0.00 0.00 0.00 0.00 0.00 0.00 0.00 0.00 0.00 0.00 0.00 0.00 0.00 0.00 0.00 0.00 0.00 0.00 0.00 0.00 0.00 0.00 0.00 0.00 0.00 0.00 0.01 0.03 0.06 0.09 0.06 0.01 0.00 0.01 0.00 0.00 0.00 0.00 0.01 0.00 0.00 0.00 0.00 0.00 0.00 0.00 0.00
0.00 0.00 0.00 0.00 0.00 0.00 0.00 0.00 0.00 0.00 0.00 0.00 0.00 0.00 0.00 0.00 0.00 0.00 0.00 0.00 0.00 0.00 0.00 0.00 0.00 0.00 0.00 0.00 0.00 0.00 0.01 0.03 0.04 0.03 0.00 0.00 0.00 0.00 0.00 0.00 0.00 0.00 0.00 0.00 0.00 0.00 0.00 0.00 0.00
0.00 0.00 0.00 0.00 0.00 0.00 0.00 0.00 0.00 0.00 0.00 0.00 0.00 0.00 0.00 0.00 0.00 0.00 0.00 0.00 0.00 0.00 0.00 0.00 0.00 0.00 0.00 0.00 0.00 0.00 0.00 0.01 0.02 0.02 0.00 0.00 0.00 0.00 0.00 0.00 0.00 0.00 0.00 0.00 0.00 0.00 0.00 0.00 0.00
0.00 0.00 0.00 0.00 0.00 0.00 0.00 0.00 0.00 0.00 0.00 0.00 0.00 0.00 0.00 0.00 0.00 0.00 0.00 0.00 0.00 0.00 0.00 0.00 0.00 0.00 0.00 0.01 0.00 0.00 0.00 0.00 0.01 0.02 0.01 0.00 0.00 0.00 0.00 0.00 0.00 0.00 0.00 0.00 0.00 0.00 0.00 0.00 0.00
0.00 0.00 0.00 0.00 0.00 0.00 0.00 0.00 0.00 0.00 0.00 0.00 0.00 0.00 0.00 0.00 0.00 0.00 0.00 0.00 0.00 0.00 0.00 0.00 0.00 0.00 0.00 0.01 0.01 0.01 0.00 0.00 0.01 0.02 0.01 0.00 0.00 0.00 0.00 0.00 0.00 0.00 0.00 0.00 0.00 0.00 0.00 0.00 0.00
0.02 0.00 0.00 0.01 0.02 0.01 0.01 0.00 0.00 0.01 0.00 0.00 0.00 0.00 0.00 0.00 0.00 0.00 0.00 0.00 0.00 0.00 0.00 0.00 0.00 0.00 0.00 0.00 0.00 0.01 0.01 0.01 0.01 0.02 0.02 0.00 0.00 0.00 0.00 0.00 0.00 0.00 0.00 0.00 0.00 0.00 0.00 0.00 0.00
0.13 0.05 0.03 0.02 0.03 0.03 0.03 0.02 0.00 0.00 0.00 0.00 0.00 0.00 0.00 0.00 0.00 0.00 0.00 0.00 0.00 0.00 0.00 0.00 0.00 0.00 0.01 0.03 0.05 0.07 0.05 0.04 0.05 0.08 0.05 0.01 0.00 0.00 0.00 0.00 0.00 0.00 0.00 0.01 0.01 0.02 0.03 0.01 0.00
0.05 0.04 0.04 0.04 0.06 0.05 0.03 0.02 0.00 0.00 0.00 0.00 0.00 0.00 0.00 0.00 0.00 0.00 0.00 0.00 0.00 0.00 0.00 0.00 0.00 0.00 0.03 0.05 0.10 0.15 0.19 0.16 0.15 0.17 0.12 0.10 0.04 0.02 0.01 0.00 0.00 0.00 0.00 0.01 0.01 0.07 0.13 0.09 0.01
0.05 0.08 0.08 0.05 0.04 0.03 0.02 0.01 0.00 0.00 0.00 0.00 0.00 0.00 0.00 0.00 0.00 0.00 0.00 0.00 0.00 0.00 0.00 0.00 0.00 0.00 0.01 0.02 0.04 0.09 0.17 0.16 0.13 0.14 0.13 0.14 0.11 0.06 0.03 0.01 0.01 0.01 0.02 0.02 0.06 0.13 0.18 0.12 0.03
0.06 0.09 0.11 0.09 0.05 0.03 0.02 0.01 0.00 0.00 0.00 0.00 0.00 0.00 0.00 0.00 0.00 0.00 0.00 0.00 0.00 0.00 0.00 0.00 0.00 0.00 0.00 0.01 0.02 0.04 0.09 0.10 0.15 0.17 0.16 0.16 0.16 0.12 0.08 0.04 0.02 0.02 0.02 0.04 0.08 0.16 0.24 0.14 0.05
0.10 0.07 0.06 0.07 0.07 0.06 0.04 0.04 0.00 0.00 0.00 0.00 0.00 0.00 0.00 0.00 0.00 0.00 0.00 0.00 0.00 0.00 0.00 0.00 0.00 0.00 0.00 0.01 0.01 0.03 0.06 0.10 0.12 0.12 0.12 0.11 0.13 0.14 0.12 0.07 0.06 0.05 0.04 0.07 0.08 0.13 0.24 0.26 0.17
0.03 0.02 0.03 0.04 0.06 0.05 0.03 0.03 0.01 0.00 0.00 0.00 0.00 0.00 0.00 0.00 0.00 0.00 0.00 0.00 0.00 0.00 0.00 0.00 0.00 0.00 0.00 0.01 0.02 0.04 0.07 0.08 0.08 0.07 0.09 0.10 0.12 0.11 0.08 0.06 0.06 0.07 0.07 0.07 0.10 0.15 0.25 0.28 0.26
0.00 0.01 0.01 0.02 0.04 0.04 0.03 0.04 0.02 0.00 0.01 0.00 0.00 0.00 0.00 0.00 0.00 0.00 0.00 0.00 0.00 0.00 0.00 0.00 0.00 0.00 0.00 0.00 0.01 0.01 0.03 0.05 0.06 0.07 0.09 0.11 0.13 0.10 0.08 0.07 0.05 0.07 0.08 0.08 0.10 0.16 0.25 0.26 0.27
0.00 0.02 0.06 0.06 0.07 0.06 0.03 0.03 0.02 0.01 0.00 0.00 0.00 0.00 0.00 0.00 0.00 0.00 0.00 0.00 0.00 0.00 0.00 0.00 0.00 0.00 0.00 0.00 0.00 0.00 0.00 0.01 0.02 0.03 0.04 0.05 0.06 0.07 0.08 0.10 0.12 0.13 0.13 0.12 0.13 0.19 0.25 0.26 0.30
0.00 0.01 0.07 0.09 0.09 0.07 0.04 0.03 0.01 0.00 0.00 0.00 0.00 0.00 0.00 0.00 0.00 0.00 0.00 0.00 0.00 0.00 0.00 0.00 0.00 0.00 0.00 0.00 0.00 0.00 0.00 0.00 0.00 0.00 0.02 0.03 0.04 0.05 0.04 0.07 0.12 0.17 0.20 0.18 0.16 0.18 0.22 0.24 0.29
0.00 0.00 0.01 0.03 0.03 0.03 0.02 0.01 0.01 0.00 0.00 0.00 0.00 0.00 0.00 0.00 0.00 0.00 0.00 0.00 0.00 0.00 0.00 0.00 0.00 0.00 0.00 0.00 0.00 0.00 0.00 0.00 0.00 0.00 0.02 0.04 0.03 0.02 0.02 0.03 0.05 0.09 0.13 0.15 0.15 0.14 0.16 0.19 0.26
0.00 0.00 0.01 0.05 0.08 0.06 0.02 0.02 0.02 0.02 0.02 0.02 0.01 0.02 0.05 0.06 0.08 0.05 0.03 0.01 0.00 0.00 0.00 0.00 0.00 0.00 0.00 0.00 0.00 0.00 0.00 0.00 0.00 0.00 0.01 0.02 0.02 0.02 0.01 0.01 0.01 0.03 0.05 0.06 0.09 0.12 0.16 0.19 0.24
0.03 0.03 0.03 0.07 0.07 0.11 0.12 0.09 0.05 0.07 0.09 0.07 0.05 0.05 0.06 0.06 0.08 0.07 0.08 0.05 0.01 0.00 0.00 0.00 0.00 0.00 0.00 0.00 0.00 0.00 0.00 0.00 0.00 0.00 0.00 0.00 0.01 0.01 0.01 0.01 0.01 0.03 0.05 0.05 0.08 0.14 0.20 0.24 0.27
0.05 0.06 0.08 0.17 0.14 0.16 0.19 0.13 0.05 0.07 0.11 0.09 0.06 0.04 0.03 0.01 0.01 0.01 0.02 0.02 0.01 0.00 0.00 0.00 0.00 0.00 0.00 0.00 0.00 0.00 0.00 0.00 0.00 0.00 0.00 0.00 0.00 0.01 0.02 0.02 0.03 0.04 0.04 0.05 0.06 0.12 0.19 0.27 0.31
MSLP
1003.87 1004.56 1005.48 1006.50 1007.45 1008.21 1008.66 1008.79 1008.63 1008.28 1007.87 1007.52 1007.32 1007.28 1007.38 1007.56 1007.73 1007.83 1007.83 1007.76 1007.67 1007.63 1007.73 1007.99 1008.41 1008.95 1009.50 1009.98 1010.33 1010.51 1010.54 1010.49 1010.43 1010.45 1010.58 1010.85 1011.22 1011.63 1012.02 1012.31 1012.49 1012.55 1012.51 1012.44 1012.36 1012.32 1012.33 1012.38 1012.43
1004.22 1005.05 1006.04 1007.04 1007.88 1008.45 1008.69 1008.58 1008.22 1007.71 1007.20 1006.81 1006.60 1006.60 1006.76 1006.99 1007.21 1007.36 1007.42 1007.40 1007.38 1007.43 1007.62 1007.97 1008.47 1009.06 1009.65 1010.15 1010.51 1010.71 1010.75 1010.71 1010.67 1010.70 1010.84 1011.10 1011.44 1011.81 1012.15 1012.40 1012.55 1012.59 1012.57 1012.53 1012.49 1012.49 1012.53 1012.58 1012.63
1004.72 1005.67 1006.68 1007.61 1008.30 1008.66 1008.66 1008.32 1007.76 1007.11 1006.53 1006.12 1005.94 1005.99 1006.21 1006.51 1006.79 1006.99 1007.09 1007.13 1007.16 1007.27 1007.52 1007.92 1008.46 1009.08 1009.69 1010.21 1010.59 1010.81 1010.89 1010.90 1010.90 1010.96 1011.11 1011.36 1011.66 1011.97 1012.25 1012.44 1012.55 1012.60 1012.60 1012.59 1012.61 1012.66 1012.73 1012.80 1012.85
1005.36 1006.37 1007.36 1008.19 1008.71 1008.86 1008.62 1008.08 1007.36 1006.61 1005.99 1005.59 1005.46 1005.57 1005.84 1006.19 1006.51 1006.75 1006.89 1006.96 1007.03 1007.18 1007.45 1007.87 1008.42 1009.04 1009.65 1010.17 1010.57 1010.82 1010.96 1011.03 1011.10 1011.21 1011.38 1011.62 1011.89 1012.14 1012.35 1012.50 1012.57 1012.61 1012.63 1012.67 1012.74 1012.84 1012.95 1013.05 1013.10
1006.06 1007.09 1008.03 1008.72 1009.07 1009.02 1008.60 1007.91 1007.08 1006.28 1005.66 1005.30 1005.22 1005.38 1005.70 1006.07 1006.41 1006.66 1006.81 1006.89 1006.98 1007.15 1007.44 1007.86 1008.40 1009.00 1009.59 1010.10 1010.51 1010.79 1010.99 1011.13 1011.27 1011.43 1011.65 1011.89 1012.13 1012.34 1012.50 1012.59 1012.64 1012.67 1012.71 1012.78 1012.90 1013.03 1013.18 1013.29 1013.34
1006.73 1007.73 1008.58 1009.14 1009.33 1009.12 1008.57 1007.79 1006.93 1006.14 1005.57 1005.26 1005.23 1005.42 1005.76 1006.13 1006.45 1006.69 1006.83 1006.92 1007.02 1007.20 1007.50 1007.92 1008.44 1009.01 1009.57 1010.06 1010.46 1010.77 1011.00 1011.20 1011.40 1011.63 1011.88 1012.14 1012.38 1012.57 1012.69 1012.76 1012.78 1012.81 1012.86 1012.94 1013.08 1013.23 1013.38 1013.49 1013.54
1007.30 1008.21 1008.93 1009.35 1009.40 1009.08 1008.47 1007.68 1006.85 1006.14 1005.64 1005.41 1005.43 1005.65 1005.97 1006.30 1006.59 1006.78 1006.90 1006.99 1007.11 1007.31 1007.62 1008.05 1008.57 1009.11 1009.63 1010.09 1010.46 1010.77 1011.02 1011.26 1011.51 1011.79 1012.08 1012.37 1012.61 1012.80 1012.91 1012.97 1012.99 1013.00 1013.05 1013.13 1013.25 1013.40 1013.53 1013.62 1013.66
1007.68 1008.46 1009.02 1009.30 1009.23 1008.85 1008.24 1007.50 1006.77 1006.18 1005.80 1005.65 1005.72 1005.94 1006.23 1006.51 1006.72 1006.87 1006.96 1007.05 1007.20 1007.43 1007.78 1008.23 1008.74 1009.27 1009.75 1010.17 1010.51 1010.79 1011.04 1011.29 1011.57 1011.88 1012.21 1012.52 1012.79 1013.00 1013.12 1013.18 1013.20 1013.21 1013.25 1013.31 1013.40 1013.51 1013.60 1013.66 1013.68
1007.83 1008.44 1008.84 1008.97 1008.81 1008.41 1007.84 1007.20 1006.61 1006.17 1005.92 1005.87 1005.98 1006.19 1006.43 1006.64 1006.79 1006.88 1006.95 1007.05 1007.22 1007.50 1007.90 1008.39 1008.91 1009.43 1009.89 1010.27 1010.57 1010.81 1011.04 1011.28 1011.56 1011.88 1012.23 1012.57 1012.87 1013.10 1013.26 1013.34 1013.37 1013.39 1013.41 1013.44 1013.49 1013.55 1013.59 1013.62 1013.62
1007.78 1008.20 1008.42 1008.41 1008.18 1007.77 1007.26 1006.75 1006.32 1006.04 1005.92 1005.96 1006.12 1006.32 1006.51 1006.65 1006.72 1006.76 1006.81 1006.92 1007.13 1007.46 1007.91 1008.44 1008.99 1009.51 1009.95 1010.30 1010.56 1010.77 1010.96 1011.17 1011.44 1011.76 1012.11 1012.47 1012.80 1013.07 1013.27 1013.39 1013.45 1013.48 1013.49 1013.50 1013.51 1013.52 1013.53 1013.52 1013.51
1007.60 1007.82 1007.87 1007.73 1007.43 1007.03 1006.59 1006.20 1005.91 1005.77 1005.78 1005.90 1006.08 1006.26 1006.40 1006.48 1006.50 1006.50 1006.52 1006.64 1006.88 1007.26 1007.75 1008.32 1008.90 1009.43 1009.87 1010.20 1010.44 1010.61 1010.78 1010.96 1011.21 1011.51 1011.86 1012.23 1012.58 1012.89 1013.12 1013.29 1013.39 1013.45 1013.48 1013.48 1013.47 1013.46 1013.43 1013.41 1013.40
1007.39 1007.44 1007.32 1007.07 1006.72 1006.31 1005.93 1005.63 1005.45 1005.41 1005.50 1005.67 1005.86 1006.02 1006.13 1006.15 1006.13 1006.09 1006.11 1006.22 1006.48 1006.88 1007.40 1007.99 1008.59 1009.14 1009.59 1009.92 1010.16 1010.34 1010.48 1010.66 1010.88 1011.16 1011.49 1011.86 1012.22 1012.55 1012.83 1013.05 1013.21 1013.31 1013.37 1013.40 1013.39 1013.38 1013.35 1013.34 1013.35
1007.29 1007.20 1006.96 1006.62 1006.21 1005.79 1005.43 1005.17 1005.04 1005.05 1005.16 1005.33 1005.51 1005.64 1005.71 1005.70 1005.65 1005.60 1005.60 1005.72 1005.97 1006.38 1006.90 1007.49 1008.10 1008.66 1009.13 1009.49 1009.76 1009.96 1010.12 1010.29 1010.50 1010.77 1011.08 1011.42 1011.78 1012.12 1012.43 1012.70 1012.91 1013.08 1013.20 1013.27 1013.31 1013.33 1013.34 1013.35 1013.40
1007.42 1007.24 1006.93 1006.52 1006.07 1005.63 1005.25 1004.97 1004.81 1004.78 1004.85 1004.96 1005.09 1005.18 1005.21 1005.19 1005.13 1005.08 1005.09 1005.19 1005.44 1005.82 1006.31 1006.89 1007.48 1008.05 1008.55 1008.97 1009.29 1009.55 1009.76 1009.95 1010.17 1010.41 1010.69 1011.00 1011.33 1011.66 1011.99 1012.29 1012.56 1012.80 1012.99 1013.15 1013.26 1013.34 1013.41 1013.47 1013.57
1007.83 1007.63 1007.29 1006.86 1006.38 1005.90 1005.46 1005.10 1004.85 1004.70 1004.64 1004.65 1004.68 1004.70 1004.71 1004.68 1004.63 1004.60 1004.63 1004.74 1004.97 1005.31 1005.77 1006.30 1006.88 1007.45 1007.99 1008.46 1008.86 1009.20 1009.47 1009.71 1009.94 1010.17 1010.41 1010.67 1010.95 1011.26 1011.57 1011.90 1012.22 1012.53 1012.80 1013.05 1013.25 1013.42 1013.57 1013.70 1013.85
1008.50 1008.33 1008.03 1007.62 1007.13 1006.61 1006.09 1005.60 1005.18 1004.85 1004.60 1004.43 1004.32 1004.26 1004.23 1004.21 1004.20 1004.22 1004.29 1004.42 1004.64 1004.96 1005.36 1005.85 1006.39 1006.96 1007.53 1008.07 1008.56 1008.98 1009.34 1009.63 1009.87 1010.08 1010.28 1010.48 1010.70 1010.95 1011.24 1011.57 1011.92 1012.29 1012.66 1013.00 1013.30 1013.57 1013.80 1014.01 1014.21
1009.32 1009.24 1009.03 1008.69 1008.23 1007.68 1007.06 1006.42 1005.78 1005.20 1004.71 1004.32 1004.04 1003.87 1003.80 1003.79 1003.85 1003.95 1004.09 1004.28 1004.51 1004.81 1005.18 1005.62 1006.13 1006.69 1007.28 1007.87 1008.43 1008.94 1009.37 1009.71 1009.97 1010.16 1010.31 1010.44 1010.58 1010.77 1011.02 1011.33 1011.70 1012.12 1012.55 1012.98 1013.38 1013.75 1014.07 1014.35 1014.61
1010.14 1010.20 1010.12 1009.89 1009.50 1008.95 1008.24 1007.43 1006.57 1005.71 1004.94 1004.29 1003.82 1003.53 1003.41 1003.43 1003.57 1003.78 1004.03 1004.30 1004.58 1004.89 1005.23 1005.64 1006.11 1006.65 1007.25 1007.87 1008.48 1009.05 1009.54 1009.92 1010.19 1010.36 1010.45 1010.51 1010.58 1010.70 1010.89 1011.18 1011.56 1012.00 1012.49 1012.99 1013.47 1013.92 1014.32 1014.68 1014.98
1010.78 1011.00 1011.11 1011.04 1010.75 1010.22 1009.46 1008.49 1007.40 1006.27 1005.21 1004.31 1003.63 1003.21 1003.04 1003.10 1003.34 1003.67 1004.06 1004.44 1004.81 1005.15 1005.50 1005.88 1006.32 1006.83 1007.41 1008.03 1008.66 1009.26 1009.78 1010.18 1010.44 1010.58 1010.63 1010.63 1010.64 1010.69 1010.84 1011.10 1011.47 1011.93 1012.45 1013.00 1013.54 1014.04 1014.51 1014.92 1015.27
1011.10 1011.51 1011.81 1011.93 1011.78 1011.32 1010.53 1009.46 1008.17 1006.80 1005.48 1004.33 1003.46 1002.91 1002.70 1002.80 1003.13 1003.60 1004.13 1004.65 1005.13 1005.54 1005.91 1006.28 1006.68 1007.14 1007.68 1008.27 1008.89 1009.48 1009.99 1010.38 1010.64 1010.76 1010.77 1010.73 1010.69 1010.70 1010.81 1011.05 1011.41 1011.87 1012.40 1012.97 1013.54 1014.08 1014.58 1015.03 1015.43
1011.05 1011.63 1012.14 1012.45 1012.46 1012.10 1011.34 1010.21 1008.80 1007.24 1005.70 1004.35 1003.31 1002.65 1002.40 1002.52 1002.94 1003.55 1004.23 1004.89 1005.47 1005.96 1006.36 1006.72 1007.09 1007.50 1007.98 1008.51 1009.07 1009.62 1010.10 1010.46 1010.69 1010.80 1010.79 1010.74 1010.68 1010.68 1010.78 1011.00 1011.35 1011.80 1012.33 1012.89 1013.46 1014.00 1014.51 1014.98 1015.40
1010.67 1011.40 1012.08 1012.57 1012.75 1012.52 1011.83 1010.70 1009.23 1007.56 1005.89 1004.39 1003.22 1002.48 1002.19 1002.33 1002.81 1003.52 1004.32 1005.09 1005.78 1006.33 1006.77 1007.13 1007.46 1007.81 1008.21 1008.66 1009.14 1009.62 1010.05 1010.38 1010.58 1010.68 1010.68 1010.63 1010.59 1010.60 1010.71 1010.94 1011.29 1011.73 1012.23 1012.76 1013.30 1013.82 1014.30 1014.76 1015.18
1010.11 1010.93 1011.74 1012.38 1012.72 1012.62 1012.04 1010.97 1009.52 1007.82 1006.09 1004.52 1003.27 1002.46 1002.14 1002.27 1002.79 1003.55 1004.42 1005.27 1006.02 1006.62 1007.08 1007.43 1007.71 1008.00 1008.32 1008.68 1009.08 1009.48 1009.84 1010.13 1010.32 1010.42 1010.44 1010.43 1010.42 1010.48 1010.62 1010.87 1011.21 1011.64 1012.11 1012.59 1013.08 1013.54 1013.98 1014.39 1014.79
1009.53 1010.38 1011.26 1012.01 1012.47 1012.50 1012.04 1011.08 1009.71 1008.07 1006.36 1004.78 1003.51 1002.67 1002.31 1002.41 1002.91 1003.67 1004.54 1005.41 1006.18 1006.79 1007.24 1007.57 1007.82 1008.04 1008.29 1008.58 1008.90 1009.23 1009.54 1009.79 1009.97 1010.08 1010.13 1010.17 1010.22 1010.33 1010.51 1010.78 1011.14 1011.54 1011.97 1012.41 1012.82 1013.21 1013.57 1013.93 1014.28
1009.13 1009.94 1010.82 1011.61 1012.14 1012.28 1011.95 1011.13 1009.90 1008.37 1006.75 1005.23 1003.98 1003.13 1002.73 1002.78 1003.21 1003.90 1004.71 1005.53 1006.26 1006.83 1007.26 1007.55 1007.76 1007.95 1008.14 1008.37 1008.63 1008.91 1009.18 1009.41 1009.60 1009.73 1009.82 1009.91 1010.01 1010.17 1010.40 1010.71 1011.06 1011.45 1011.85 1012.22 1012.57 1012.87 1013.16 1013.44 1013.73
1009.03 1009.74 1010.54 1011.30 1011.85 1012.06 1011.85 1011.18 1010.12 1008.76 1007.28 1005.87 1004.67 1003.82 1003.38 1003.35 1003.66 1004.23 1004.92 1005.62 1006.25 1006.75 1007.12 1007.38 1007.56 1007.71 1007.88 1008.08 1008.32 1008.58 1008.84 1009.07 1009.26 1009.41 1009.54 1009.67 1009.83 1010.04 1010.30 1010.63 1010.99 1011.37 1011.73 1012.06 1012.34 1012.58 1012.79 1012.99 1013.21
1009.27 1009.82 1010.50 1011.16 1011.69 1011.93 1011.81 1011.29 1010.40 1009.22 1007.92 1006.64 1005.52 1004.69 1004.19 1004.05 1004.22 1004.61 1005.12 1005.65 1006.14 1006.54 1006.84 1007.05 1007.21 1007.36 1007.54 1007.75 1008.00 1008.27 1008.54 1008.78 1008.99 1009.17 1009.32 1009.48 1009.67 1009.91 1010.20 1010.53 1010.90 1011.27 1011.61 1011.91 1012.15 1012.34 1012.50 1012.64 1012.79
1009.81 1010.18 1010.69 1011.23 1011.68 1011.91 1011.85 1011.45 1010.72 1009.73 1008.60 1007.45 1006.42 1005.60 1005.05 1004.79 1004.78 1004.97 1005.27 1005.61 1005.93 1006.20 1006.42 1006.59 1006.75 1006.92 1007.13 1007.39 1007.68 1007.98 1008.28 1008.55 1008.78 1008.98 1009.15 1009.32 1009.52 1009.76 1010.05 1010.40 1010.77 1011.14 1011.48 1011.77 1012.00 1012.17 1012.30 1012.41 1012.52
1010.57 1010.77 1011.10 1011.49 1011.84 1012.02 1011.98 1011.65 1011.05 1010.22 1009.24 1008.21 1007.26 1006.44 1005.83 1005.44 1005.26 1005.23 1005.32 1005.45 1005.60 1005.75 1005.88 1006.03 1006.19 1006.41 1006.68 1007.00 1007.35 1007.71 1008.06 1008.36 1008.61 1008.81 1008.98 1009.15 1009.33 1009.56 1009.85 1010.18 1010.55 1010.93 1011.29 1011.60 1011.86 1012.05 1012.19 1012.29 1012.39
1011.42 1011.48 1011.66 1011.91 1012.14 1012.25 1012.19 1011.90 1011.38 1010.65 1009.78 1008.85 1007.94 1007.12 1006.45 1005.94 1005.59 1005.37 1005.26 1005.21 1005.20 1005.24 1005.31 1005.43 1005.61 1005.87 1006.21 1006.60 1007.02 1007.45 1007.84 1008.17 1008.43 1008.63 1008.79 1008.93 1009.09 1009.29 1009.55 1009.87 1010.24 1010.64 1011.02 1011.38 1011.68 1011.92 1012.10 1012.24 1012.35
Thickness
5856 5863 5858 5844 5816 5803 5799 5812 5822 5820 5824 5836 5841 5838 5827 5816 5805 5791 5819 5835 5832 5825 5818 5812 5808 5803 5799 5795 5792 5788 5785 5782 5780 5779 5776 5773 5770 5767 5765 5763 5762 5760 5758 5757 5755 5754 5756 5759 5762
5858 5863 5850 5830 5797 5785 5795 5815 5817 5822 5832 5840 5839 5836 5825 5819 5824 5818 5824 5831 5831 5825 5818 5813 5807 5802 5798 5794 5790 5787 5784 5781 5778 5776 5774 5771 5767 5764 5762 5761 5759 5757 5756 5755 5753 5751 5752 5755 5758
5856 5858 5835 5818 5800 5793 5798 5817 5823 5831 5840 5838 5833 5832 5821 5816 5826 5823 5827 5830 5830 5825 5819 5812 5806 5800 5796 5792 5788 5785 5782 5779 5776 5773 5770 5767 5765 5762 5759 5758 5757 5755 5754 5753 5752 5751 5751 5752 5755
5853 5843 5833 5809 5798 5812 5817 5824 5831 5829 5835 5840 5835 5821 5821 5830 5832 5828 5830 5831 5827 5822 5816 5809 5804 5799 5794 5790 5787 5783 5780 5777 5774 5770 5767 5764 5762 5760 5757 5756 5755 5754 5753 5752 5751 5750 5749 5750 5752
5848 5828 5808 5796 5806 5820 5830 5835 5835 5826 5828 5832 5830 5814 5812 5829 5835 5832 5831 5829 5823 5819 5815 5807 5802 5798 5794 5789 5786 5782 5779 5776 5772 5769 5765 5762 5760 5758 5756 5754 5753 5752 5751 5751 5750 5750 5749 5749 5751
5829 5822 5788 5776 5802 5821 5832 5839 5836 5829 5830 5832 5828 5815 5813 5830 5830 5829 5829 5826 5824 5818 5814 5806 5801 5798 5794 5789 5784 5781 5777 5774 5771 5767 5763 5760 5757 5756 5754 5752 5751 5750 5750 5749 5749 5749 5750 5750 5751
5818 5809 5790 5791 5803 5812 5827 5840 5834 5829 5827 5832 5835 5815 5814 5824 5828 5830 5828 5825 5822 5818 5814 5807 5801 5797 5793 5789 5784 5780 5776 5772 5769 5766 5762 5758 5755 5753 5751 5749 5748 5748 5748 5748 5747 5748 5748 5749 5749
5825 5814 5807 5806 5804 5807 5831 5838 5838 5832 5830 5842 5840 5817 5809 5820 5829 5828 5825 5821 5820 5817 5814 5810 5805 5800 5794 5788 5783 5778 5774 5770 5766 5763 5760 5756 5753 5750 5748 5746 5745 5745 5744 5744 5745 5745 5746 5747 5748
5827 5805 5794 5797 5808 5814 5832 5830 5837 5843 5839 5838 5840 5832 5829 5831 5828 5821 5816 5815 5815 5814 5813 5812 5807 5803 5797 5789 5782 5777 5772 5768 5764 5761 5757 5754 5751 5748 5746 5744 5742 5742 5741 5741 5742 5743 5744 5745 5747
5819 5797 5799 5812 5827 5827 5831 5830 5832 5833 5826 5828 5831 5834 5834 5829 5823 5815 5810 5809 5809 5810 5810 5811 5808 5803 5798 5791 5782 5777 5773 5768 5764 5761 5757 5754 5752 5749 5745 5741 5739 5739 5738 5738 5740 5741 5742 5743 5744
5819 5809 5821 5828 5838 5837 5831 5831 5834 5824 5816 5825 5826 5828 5830 5825 5820 5816 5814 5813 5812 5812 5811 5810 5807 5803 5797 5790 5783 5778 5774 5769 5767 5763 5759 5755 5752 5747 5742 5740 5736 5736 5736 5737 5738 5739 5741 5743 5746
5815 5820 5827 5829 5837 5831 5829 5831 5828 5826 5826 5840 5841 5836 5831 5824 5820 5818 5816 5816 5815 5812 5810 5808 5807 5802 5796 5790 5784 5779 5775 5771 5769 5766 5763 5759 5755 5750 5744 5741 5738 5736 5736 5737 5738 5739 5742 5745 5746
5811 5816 5827 5831 5831 5829 5829 5827 5825 5827 5839 5844 5843 5837 5830 5826 5824 5824 5824 5821 5817 5812 5809 5808 5805 5801 5795 5790 5784 5780 5776 5772 5770 5767 5764 5760 5756 5751 5746 5743 5740 5739 5738 5738 5738 5739 5739 5740 5741
5813 5818 5821 5826 5827 5828 5822 5823 5824 5826 5840 5840 5837 5833 5832 5829 5828 5824 5823 5820 5817 5813 5810 5808 5805 5801 5796 5789 5785 5782 5778 5773 5771 5767 5764 5760 5756 5752 5746 5744 5740 5740 5738 5737 5737 5736 5734 5733 5733
5817 5806 5808 5818 5823 5826 5822 5812 5820 5834 5839 5833 5832 5832 5832 5830 5830 5826 5825 5822 5819 5814 5811 5807 5803 5801 5795 5790 5786 5783 5778 5774 5770 5766 5763 5759 5756 5752 5746 5743 5739 5739 5738 5737 5736 5734 5731 5728 5727
5805 5796 5790 5813 5823 5825 5811 5794 5821 5838 5833 5826 5827 5829 5827 5829 5831 5831 5829 5825 5821 5816 5811 5806 5802 5799 5794 5789 5784 5781 5777 5773 5769 5765 5761 5759 5755 5752 5747 5742 5738 5738 5737 5736 5733 5730 5726 5724 5723
5785 5777 5782 5798 5816 5814 5804 5796 5819 5831 5827 5823 5824 5825 5823 5824 5828 5830 5829 5827 5822 5817 5810 5804 5800 5795 5791 5787 5782 5779 5776 5772 5768 5764 5759 5757 5754 5751 5747 5742 5738 5737 5735 5733 5730 5726 5723 5720 5717
5759 5763 5766 5772 5786 5786 5783 5790 5810 5822 5821 5819 5822 5823 5821 5821 5823 5828 5828 5826 5822 5817 5812 5805 5799 5793 5788 5783 5778 5773 5770 5767 5765 5761 5757 5754 5752 5750 5747 5741 5736 5735 5732 5729 5726 5722 5720 5717 5715
5759 5755 5754 5762 5770 5761 5762 5775 5795 5811 5813 5812 5814 5818 5820 5821 5826 5826 5824 5821 5817 5812 5807 5800 5793 5787 5781 5774 5769 5764 5760 5759 5757 5754 5752 5749 5748 5746 5745 5739 5734 5731 5727 5724 5722 5719 5715 5712 5713
5748 5740 5738 5747 5754 5748 5750 5763 5786 5802 5807 5810 5810 5814 5818 5819 5818 5813 5814 5811 5808 5803 5799 5794 5787 5781 5775 5769 5765 5761 5756 5753 5751 5748 5745 5743 5741 5741 5740 5737 5731 5727 5723 5720 5717 5715 5709 5707 5709
5739 5730 5726 5723 5732 5739 5733 5741 5767 5792 5807 5811 5813 5815 5818 5816 5810 5805 5805 5802 5799 5793 5789 5786 5779 5773 5768 5764 5759 5755 5751 5746 5743 5740 5738 5738 5736 5735 5734 5732 5727 5722 5718 5715 5712 5710 5705 5700 5703
5726 5733 5726 5719 5709 5707 5711 5703 5747 5775 5787 5797 5802 5805 5808 5810 5808 5799 5797 5793 5789 5785 5783 5778 5773 5768 5763 5758 5752 5747 5741 5736 5736 5735 5733 5732 5730 5727 5726 5725 5722 5717 5713 5710 5708 5707 5703 5699 5695
5735 5738 5727 5718 5709 5704 5711 5701 5733 5762 5764 5778 5790 5796 5801 5804 5801 5792 5791 5787 5783 5779 5775 5772 5768 5764 5760 5755 5750 5744 5739 5735 5734 5733 5729 5726 5724 5722 5720 5718 5717 5713 5709 5706 5704 5702 5700 5697 5694
5742 5731 5723 5717 5706 5695 5716 5707 5716 5739 5750 5762 5776 5786 5791 5793 5792 5786 5785 5780 5775 5771 5768 5766 5761 5758 5755 5751 5746 5741 5736 5732 5728 5725 5721 5719 5716 5715 5714 5712 5710 5708 5705 5702 5700 5698 5697 5695 5694
5732 5712 5690 5684 5681 5692 5718 5710 5716 5741 5755 5761 5766 5775 5782 5784 5782 5776 5773 5769 5764 5762 5762 5761 5756 5751 5748 5745 5742 5739 5735 5731 5726 5722 5718 5713 5709 5707 5707 5706 5704 5702 5701 5699 5698 5695 5695 5695 5693
5722 5713 5685 5670 5676 5686 5697 5698 5725 5750 5759 5765 5767 5771 5774 5773 5774 5769 5767 5763 5759 5758 5758 5756 5752 5747 5744 5741 5739 5739 5735 5728 5725 5722 5716 5711 5707 5704 5703 5702 5699 5698 5697 5696 5695 5693 5693 5694 5694
5710 5711 5717 5696 5690 5685 5699 5713 5730 5745 5749 5755 5759 5762 5765 5767 5767 5765 5763 5760 5757 5756 5754 5753 5749 5745 5741 5738 5737 5735 5733 5727 5722 5718 5714 5708 5705 5702 5700 5698 5696 5694 5694 5693 5692 5691 5691 5692 5692
5715 5711 5700 5682 5667 5673 5695 5700 5694 5710 5719 5731 5742 5749 5750 5753 5753 5755 5755 5756 5756 5755 5752 5750 5747 5743 5739 5736 5735 5731 5727 5724 5718 5714 5708 5704 5701 5699 5695 5693 5692 5691 5689 5688 5688 5687 5688 5687 5688
5678 5680 5683 5681 5677 5660 5658 5672 5691 5690 5694 5701 5721 5733 5738 5741 5743 5746 5745 5748 5754 5753 5750 5746 5743 5741 5737 5734 5731 5726 5721 5718 5714 5709 5705 5701 5698 5695 5693 5691 5689 5688 5686 5684 5683 5682 5682 5682 5682
5662 5660 5668 5657 5660 5666 5657 5664 5684 5686 5685 5692 5702 5716 5728 5738 5744 5748 5748 5749 5750 5750 5748 5745 5742 5739 5735 5732 5728 5722 5718 5713 5708 5705 5703 5700 5696 5693 5691 5690 5688 5686 5684 5682 5680 5678 5678 5678 5677